Regional Weather Roundup
Issued by NWS Charleston, SC

Current Version | Previous Version | Text Only | Print | Product List | Glossary Off
Versions: 1 2 3 4 5 6 7 8 9 10 11 12 13 14 15 16 17 18 19 20 21 22 23 24 25 26 27 28 29 30 31 32 33 34 35 36 37 38 39 40 41 42 43 44 45 46 47 48 49 50

000
ASUS42 KCHS 032012
RWRCHS

REGIONAL WEATHER ROUNDUP
NATIONAL WEATHER SERVICE CHARLESTON SC
300 PM EST TUE MAR 03 2015

NOTE: "FAIR" INDICATES FEW OR NO CLOUDS BELOW 12,000 FEET WITH NO
SIGNIFICANT WEATHER AND/OR OBSTRUCTIONS TO VISIBILITY.

NOT ALL STATIONS ARE QUALITY CONTROLLED BY THE NATIONAL
WEATHER SERVICE. USE DATA WITH CAUTION...ESPECIALLY
DEWPOINT OBSERVATIONS.

SCZ027-030-031-034>040-042>050-032100-
...SOUTHEAST SOUTH CAROLINA...

CITY           SKY/WX    TMP DP  RH WIND       PRES   REMARKS
N CHARLESTON   CLOUDY    62  51  67 E7        30.17F
WATERFRONT PRK   N/A     57 N/A N/A N7          N/A
MOUNT PLEASANT CLOUDY    61  54  77 CALM      30.17F
PINOPOLIS      NOT AVBL
MONCKS CORNER  CLOUDY    55  48  76 N3        30.18F
SUMMERVILLE    CLOUDY    59  50  72 NE5       30.18F
BEAUFORT MCAS  PTSUNNY   68  60  75 SE7       30.16F
BEAUFORT ARPT  CLOUDY    64  59  82 CALM      30.17F
HILTON HEAD IS PTSUNNY   61  55  82 NE5       30.19F
WALTERBORO     CLOUDY    64  55  72 E6        30.18F
ALLENDALE      FOG       55  55 100 N5        30.17S VSB 1/4

...SOUTHERN MIDLANDS AND PEE DEE...

CITY           SKY/WX    TMP DP  RH WIND       PRES   REMARKS
GEORGETOWN     NOT AVBL
KINGSTREE      NOT AVBL
ORANGEBURG     CLOUDY    49  45  86 E6        30.20F
BARNWELL       CLOUDY    54  54 100 E5        30.19F FOG
AIKEN          CLOUDY    52  52 100 NE7       30.22F FOG
MANNING        CLOUDY   N/A N/A N/A CALM      30.21F HAZE
COLUMBIA       DRIZZLE   45  45 100 E6        30.21F FOG
SUMTER         CLOUDY    43  41  93 N7        30.21S FOG
FLORENCE       CLOUDY    43  37  79 NE7       30.22F
MYRTLE BEACH   CLOUDY    52  45  76 NE10      30.23F FOG
N MYRTLE BEACH CLOUDY    53  44  71 N7        30.20F

$$

GAZ063-065-086>088-099>101-113>116-118-119-134>141-150-032100-
...SOUTHEAST GEORGIA...

CITY           SKY/WX    TMP DP  RH WIND       PRES   REMARKS
SAVANNAH ARPT  CLOUDY    69  57  65 E9        30.16F
HUNTER AAF     CLOUDY    70  62  75 SE6       30.14F
FORT STEWART   CLOUDY    75  63  67 S6        30.12F
STATESBORO     CLOUDY    73  64  72 S5        30.13F
SYLVANIA       CLOUDY    72  65  79 SE3       30.15F
CLAXTON        CLOUDY    73  64  73 CALM      30.14F

...CSRA...CENTRAL AND FAR SOUTHEAST GEORGIA...

CITY           SKY/WX    TMP DP  RH WIND       PRES   REMARKS
THOMSON        CLOUDY    53  53 100 N5        30.23S
AUGUSTA-BUSH   CLOUDY    55  54  96 E6        30.18F FOG
AUGUSTA-DANIEL LGT RAIN  56  54  93 NE7       30.18F
SWAINSBORO     NOT AVBL
VIDALIA        CLOUDY    77  64  65 SW6       30.13F
EASTMAN        CLOUDY    78  64  63 W3        30.14F
HAZLEHURST     CLOUDY    79  65  61 CALM      30.12F
ALMA           PTSUNNY   81  62  52 SW7       30.12F
WAYCROSS       PTSUNNY   84  67  55 SW9       30.12F
JESUP          MOCLDY    81  66  61 CALM      30.13F
BAXLEY         PTSUNNY   81  64  57 SW5       30.12F
BRUNSWICK      FAIR      75  61  60 SE12      30.16S
SAINT SIMONS   FAIR      68  61  78 SE8       30.16F

$$

SCZ027-028-034-036>038-045-046-048>050-GAZ119-141-032100-
...LAKE AND SUPPLEMENTAL COASTAL OBSERVATIONS...

STATION/POSITION TIME  TEMP    WIND        PRES    WAVE   SWELL
                       AIR SEA DIR/SP/G            HT/PER HT/PER/DIR
                 (UTC) (F)     (DEG/KT/KT) (MB)    (FT/S) (FT/S/D)
UPR LAKE MARION  NOT AVBL
WINYAH BAY       NOT AVBL
LAKE MURRAY      1900   44      50/  3/  5 1023.0F
ACE BASIN NERRS  NOT AVBL
FORT PULASKI     1900   52 50   80/  9/ 11 1022.8F
SAPELO ISLAND    1900   73     160/  7     1021.0F

$$

ANZ835-935-AMZ111-154-330-350-352-354-370-450-454-472-032100-
...C-MAN AND BUOY OBSERVATIONS...

STATION/POSITION TIME  TEMP    WIND        PRES    WAVE   SWELL
                       AIR SEA DIR/SP/G            HT/PER HT/PER/DIR
                 (UTC) (F)     (DEG/KT/KT) (MB)    (FT/S) (FT/S/D)
BUOY 41004       1950   70 69  160/  4/  4 1021.1F   6/ 7   5/ 7
BUOY 41008       1950   59 57   40/  4/  4 1021.4F   3/ 8   3/120/ 8
FOLLY BEACH CMAN 2000   53      70/  7/  7 1022.3F
CAPERS NEARSHORE NOT AVBL
FRIPP NEARSHORE  1900   51      60/  8/  8 1021.9F


STATION/POSITION TIME  TEMP    WIND        PRES    WAVE   SWELL
                       AIR SEA DIR/SP/G            HT/PER HT/PER/DIR
                 (UTC) (F)     (DEG/KT/KT) (MB)    (FT/S) (FT/S/D)
5E ST. MARYS GA  1951      59                N/A     2/ 8
FRYING PAN BUOY  1850   63 60  130/ 14/ 16 1023.4    5/ 6   3/110/ 8
BUOY 41025       NOT AVBL
CAPE LOOKOUT NC  2000   46      20/  8/ 10 1023.8F
BUOY 41002       1950   65 72  120/ 14/ 17 1025.0F   7/ 9   5/ 50/ 9
BUOY 41010       1920   73 75  130/ 12/ 14 1022.3F
ST AUGUSTINE FL  2000   63     110/ 10/ 10 1021.6F


$$



USA.gov is the U.S. government's official web portal to all federal, state and local government web resources and services.